Hourly Weather Roundup
Issued by NWS Central Illinois

Home | Current Version | Previous Version | Text Only | Print | Product List | Glossary Off
Versions: 1 2 3 4 5 6 7 8 9 10 11 12 13 14 15 16 17 18 19 20 21 22 23 24 25 26 27 28 29 30 31 32 33 34 35 36 37 38 39 40 41 42 43 44 45 46 47 48 49 50

821
NZUS43 KILX 181910
HWRILX

Area Weather Roundup
National Weather Service Lincoln IL
200 PM CDT WED OCT 18 2017

NOTE:  "FAIR" indicates few or no clouds below 12,000 feet, with
       no sigificant weather and/or obstructions to visibility.


CITY           SKY/WX    TMP DP  RH WIND       PRES   REMARKS
Bloomington    SUNNY     70  44  39 S21       30.11F
Champaign      SUNNY     73  40  30 SW17G25   30.15F
Danville       SUNNY     69  42  37 S16       30.14F
Decatur        SUNNY     69  43  38 S16       30.13F
Effingham      SUNNY     71  45  40 S10G17    30.18F
Flora          SUNNY     71  49  44 S10       30.18F
Galesburg      SUNNY     71  46  41 S14G21    30.06F
Jacksonville   SUNNY     71  43  36 SW8G17    30.10F
Lacon          SUNNY     70  45  40 SW10      30.07F
Lawrenceville  SUNNY     70  47  43 SW12      30.21F
Litchfield     SUNNY     70  43  37 S15G23    30.13F
$$


CITY           SKY/WX    TMP DP  RH WIND       PRES   REMARKS
Lincoln        SUNNY     72  44  37 S9G18     30.10F
Macomb         SUNNY     72  43  34 S17       30.08F
Mattoon        SUNNY     68  45  43 S12       30.16F
Mt Carmel AP   SUNNY     70  44  38 S10G21    30.20F
Olney-Noble AP SUNNY     70  41  34 S8        30.19F
Paris AP       SUNNY     69  47  44 S15G21    30.18F
Peoria         SUNNY     70  44  39 S18       30.08F
Pontiac        SUNNY     72  41  32 S16G24    30.10F
Rantoul        SUNNY     71  43  35 S17       30.14F
Robinson       SUNNY     69  45  41 S14       30.21F
Springfield    SUNNY     72  46  39 S14G21    30.11F
Taylorville    SUNNY     71  44  38 S12G20    30.13F
$$

...REGIONAL REPORTS...


CITY           SKY/WX    TMP DP  RH WIND       PRES   REMARKS
Chicago O`Hare SUNNY     69  44  40 S21G28    30.07F
Kankakee       SUNNY     69  40  35 SW18G24   30.13F
Moline         SUNNY     72  44  36 S16       30.02F
Mount Sterling SUNNY     70  45  40 S13       30.08F
Mount Vernon   SUNNY     70  49  47 SW16      30.18F
Pittsfield     SUNNY     72  45  38 S12G17    30.10F
Quincy         SUNNY     71  43  36 S15       30.06F
Rockford       SUNNY     71  42  35 S20G32    30.04F
$$


CITY           SKY/WX    TMP DP  RH WIND       PRES   REMARKS
Burlington     SUNNY     72  47  40 S16G24    30.03F
Cedar Rapids   SUNNY     70  45  40 S16       29.96F
Des Moines     PTSUNNY   73  49  42 S15       29.92F
Kirksville     SUNNY     71  49  45 S13       30.05F
Ottumwa        SUNNY     73  47  39 S17G26    29.98F
St Louis       MOSUNNY   71  46  40 S9        30.13F
$$


CITY           SKY/WX    TMP DP  RH WIND       PRES   REMARKS
Terre Haute    SUNNY     69  45  41 S14       30.19F
Evansville     SUNNY     69  45  41 S7G16     30.22F
Indianapolis   MOSUNNY   68  45  43 S12       30.21F
Lafayette      SUNNY     67  42  40 S12G20    30.16F
Madison        MOSUNNY   70  47  43 S18G26    29.96F
Milwaukee      MOSUNNY   71  46  40 S17G25    30.01F
$$






USA.gov is the U.S. government's official web portal to all federal, state and local government web resources and services.